Location: Unspecified
(43.4680°N, 87.1740°E)
Time: 21:40:17
(UTC+00:00)

NOSS 0 Rocket - Pass Details

Date: 07 August 2021
Orbit: 936 x 954 km, 70.0° (Epoch: 22 September)

Event Time Altitude Azimuth Distance (km) Brightness Sun altitude
Rises 16:48:25 0° 328° (NNW) 3,633 8.3 -27.0°
Reaches altitude 10° 16:51:03 10° 322° (NW) 2,681 7.2 -27.1°
Maximum altitude 16:56:54 45° 252° (WSW) 1,277 4.6 -27.6°
Enters shadow 16:57:37 43° 234° (SW) 1,307 4.5 -27.6°
